When you browse on this site, cookies collect data to enhance your experience and personalize the content and advertising you see.
Visit our Privacy Policy to learn more. By continuing to use the site, you agree to this use of cookies and data.
  • In Austria
  • List of Countries
  • For 7 days
  • Water Temperature
  • Satellite Maps
  • Weather Map
  • News
  • Weather Widgets
  • user-avatar
    Login

    Hourly Weather Canillo

    Today, 19 January, Saturday

    Time Temperature Precipitation Wind Pressure Humidity
    00:00 -5°C° 0 mm 0 mps 612 mmHg 73%
    01:00 -6°C° 0 mm 0 mps 611 mmHg 73%
    02:00 -6°C° 0 mm 1 mps 611 mmHg 72%
    03:00 -6°C° 0 mm 1 mps 611 mmHg 72%
    04:00 -6°C° 0 mm 1 mps 611 mmHg 72%
    05:00 -7°C° 0 mm 1 mps 611 mmHg 72%
    06:00 -7°C° 0 mm 1 mps 610 mmHg 69%
    07:00 -4°C° 0 mm 1 mps 611 mmHg 66%
    08:00 -4°C° 0 mm 0 mps 612 mmHg 63%
    09:00 -3°C° 0 mm 0 mps 612 mmHg 60%
    10:00 -1°C° 0 mm 0 mps 613 mmHg 58%
    11:00 +1°C° 0 mm 1 mps 613 mmHg 56%
    12:00 +3°C° 0 mm 1 mps 614 mmHg 53%
    13:00 +2°C° 0 mm 1 mps 613 mmHg 55%
    14:00 +2°C° 0 mm 1 mps 612 mmHg 56%
    15:00 +2°C° 0 mm 1 mps 612 mmHg 57%
    16:00 0°C° 0 mm 1 mps 611 mmHg 65%
    17:00 -2°C° 0 mm 1 mps 610 mmHg 72%
    18:00 -4°C° 0 mm 1 mps 609 mmHg 79%
    19:00 -4°C° 0 mm 1 mps 609 mmHg 77%
    20:00 -3°C° 0 mm 1 mps 609 mmHg 76%
    21:00 -3°C° 0 mm 1 mps 609 mmHg 74%
    22:00 -3°C° 0 mm 1 mps 609 mmHg 75%
    23:00 -3°C° 0 mm 1 mps 609 mmHg 76%

    Tomorrow, 20 January, Sunday

    Time Temperature Precipitation Wind Pressure Humidity
    00:00 -3°C° 0 mm 1 mps 609 mmHg 77%
    01:00 -3°C° 0 mm 1 mps 609 mmHg 78%
    02:00 -3°C° 0 mm 1 mps 609 mmHg 78%
    03:00 -3°C° 0 mm 1 mps 609 mmHg 79%
    04:00 -3°C° 0 mm 1 mps 609 mmHg 77%
    05:00 -3°C° 0 mm 1 mps 609 mmHg 76%
    06:00 -3°C° 0 mm 1 mps 609 mmHg 74%
    07:00 -2°C° 0 mm 1 mps 610 mmHg 71%
    08:00 -2°C° 0 mm 1 mps 610 mmHg 67%
    09:00 -1°C° 0 mm 1 mps 611 mmHg 64%
    10:00 -2°C° 0 mm 2 mps 611 mmHg 62%
    11:00 -1°C° 0 mm 2 mps 612 mmHg 60%
    12:00 +1°C° 0 mm 2 mps 612 mmHg 58%
    13:00 -1°C° 0 mm 2 mps 612 mmHg 59%
    14:00 -1°C° 0 mm 2 mps 612 mmHg 61%
    15:00 -1°C° 0 mm 2 mps 612 mmHg 63%
    16:00 -3°C° 0 mm 2 mps 611 mmHg 72%
    17:00 -4°C° 0 mm 2 mps 611 mmHg 82%
    18:00 -4°C° 0 mm 1 mps 611 mmHg 91%
    19:00 -4°C° 0.1 mm 1 mps 611 mmHg 89%
    20:00 -3°C° 0.1 mm 1 mps 612 mmHg 88%
    21:00 -3°C° 0.1 mm 1 mps 612 mmHg 86%
    22:00 -3°C° 0.2 mm 1 mps 612 mmHg 87%
    23:00 -3°C° 0.2 mm 1 mps 613 mmHg 87%

    Day after tomorrow, 21 January, Monday

    Time Temperature Precipitation Wind Pressure Humidity
    00:00 -2°C° 0.2 mm 1 mps 613 mmHg 87%
    01:00 -5°C° 0.2 mm 2 mps 613 mmHg 88%
    02:00 -5°C° 0.2 mm 2 mps 613 mmHg 88%
    03:00 -5°C° 0.2 mm 2 mps 613 mmHg 89%
    04:00 -5°C° 0.2 mm 2 mps 613 mmHg 89%
    05:00 -5°C° 0.2 mm 2 mps 613 mmHg 89%
    06:00 -5°C° 0.2 mm 2 mps 613 mmHg 89%
    07:00 -5°C° 0.3 mm 2 mps 613 mmHg 87%
    08:00 -5°C° 0.3 mm 2 mps 614 mmHg 85%
    09:00 -4°C° 0.3 mm 2 mps 614 mmHg 83%
    10:00 -4°C° 0.3 mm 2 mps 614 mmHg 81%
    11:00 -4°C° 0.3 mm 2 mps 614 mmHg 78%
    12:00 -3°C° 0.3 mm 2 mps 615 mmHg 75%
    13:00 -3°C° 0.1 mm 2 mps 614 mmHg 75%
    14:00 -4°C° 0.1 mm 3 mps 614 mmHg 74%
    15:00 -4°C° 0.1 mm 3 mps 614 mmHg 74%
    16:00 -5°C° 0 mm 2 mps 614 mmHg 79%
    17:00 -6°C° 0 mm 2 mps 613 mmHg 85%
    18:00 -7°C° 0 mm 2 mps 613 mmHg 91%
    19:00 -8°C° 0 mm 2 mps 613 mmHg 90%
    20:00 -9°C° 0 mm 2 mps 613 mmHg 90%
    21:00 -9°C° 0 mm 2 mps 613 mmHg 89%
    22:00 -10°C° 0 mm 2 mps 612 mmHg 85%
    23:00 -10°C° 0 mm 2 mps 612 mmHg 80%

    22 January, Tuesday

    Time Temperature Precipitation Wind Pressure Humidity
    00:00 -10°C° 0 mm 2 mps 612 mmHg 75%
    01:00 -10°C° 0 mm 2 mps 611 mmHg 70%
    02:00 -10°C° 0 mm 2 mps 611 mmHg 66%
    03:00 -10°C° 0 mm 2 mps 610 mmHg 61%
    04:00 -10°C° 0 mm 2 mps 610 mmHg 57%
    05:00 -10°C° 0 mm 2 mps 609 mmHg 53%
    06:00 -9°C° 0 mm 1 mps 609 mmHg 48%
    07:00 -7°C° 0 mm 1 mps 609 mmHg 47%
    08:00 -6°C° 0 mm 1 mps 609 mmHg 45%
    09:00 -3°C° 0 mm 1 mps 610 mmHg 43%
    10:00 -3°C° 0.3 mm 1 mps 609 mmHg 53%
    11:00 -3°C° 0.3 mm 1 mps 609 mmHg 63%
    12:00 -2°C° 0.3 mm 1 mps 609 mmHg 72%
    13:00 -5°C° 0.6 mm 2 mps 608 mmHg 76%
    14:00 -5°C° 0.6 mm 2 mps 607 mmHg 79%
    15:00 -5°C° 0.6 mm 2 mps 607 mmHg 82%
    16:00 -6°C° 0.2 mm 2 mps 606 mmHg 85%
    17:00 -6°C° 0.2 mm 2 mps 606 mmHg 87%
    18:00 -6°C° 0.2 mm 1 mps 605 mmHg 90%
    19:00 -6°C° 0.3 mm 1 mps 605 mmHg 91%
    20:00 -6°C° 0.3 mm 1 mps 604 mmHg 92%
    21:00 -6°C° 0.3 mm 1 mps 604 mmHg 93%
    22:00 -6°C° 0.4 mm 1 mps 604 mmHg 93%
    23:00 -7°C° 0.4 mm 1 mps 603 mmHg 92%

    23 January, Wednesday

    Time Temperature Precipitation Wind Pressure Humidity
    00:00 -8°C° 0.4 mm 2 mps 603 mmHg 92%
    01:00 -8°C° 0.4 mm 2 mps 602 mmHg 92%
    02:00 -8°C° 0.4 mm 2 mps 602 mmHg 92%
    03:00 -9°C° 0.4 mm 2 mps 601 mmHg 91%
    04:00 -10°C° 1 mm 3 mps 601 mmHg 92%
    05:00 -10°C° 1 mm 3 mps 601 mmHg 92%
    06:00 -12°C° 1 mm 3 mps 601 mmHg 93%
    07:00 -12°C° 0.7 mm 4 mps 601 mmHg 91%
    08:00 -12°C° 0.7 mm 4 mps 602 mmHg 89%
    09:00 -14°C° 0.7 mm 5 mps 602 mmHg 87%
    10:00 -13°C° 0.1 mm 5 mps 602 mmHg 84%
    11:00 -13°C° 0.1 mm 5 mps 602 mmHg 81%
    12:00 -13°C° 0.1 mm 5 mps 602 mmHg 78%
    13:00 -13°C° 0.1 mm 5 mps 602 mmHg 79%
    14:00 -13°C° 0.1 mm 5 mps 601 mmHg 80%
    15:00 -12°C° 0.1 mm 4 mps 601 mmHg 81%
    16:00 -14°C° 0.2 mm 4 mps 601 mmHg 84%
    17:00 -14°C° 0.2 mm 4 mps 601 mmHg 87%
    18:00 -15°C° 0.2 mm 4 mps 602 mmHg 90%
    19:00 -15°C° 0.3 mm 5 mps 602 mmHg 89%
    20:00 -15°C° 0.3 mm 6 mps 603 mmHg 88%
    21:00 -15°C° 0.3 mm 7 mps 603 mmHg 87%
    22:00 -15°C° 0.1 mm 6 mps 603 mmHg 87%
    23:00 -15°C° 0.1 mm 6 mps 604 mmHg 86%

    24 January, Thursday

    Time Temperature Precipitation Wind Pressure Humidity
    00:00 -14°C° 0.1 mm 5 mps 604 mmHg 86%
    01:00 -14°C° 0 mm 5 mps 604 mmHg 86%
    02:00 -14°C° 0 mm 5 mps 604 mmHg 86%
    03:00 -14°C° 0 mm 5 mps 604 mmHg 87%
    04:00 -14°C° 0.1 mm 5 mps 605 mmHg 87%
    05:00 -14°C° 0.1 mm 5 mps 605 mmHg 87%
    06:00 -15°C° 0.1 mm 5 mps 605 mmHg 87%
    07:00 -14°C° 0 mm 5 mps 605 mmHg 86%
    08:00 -14°C° 0 mm 5 mps 606 mmHg 84%
    09:00 -13°C° 0 mm 5 mps 607 mmHg 83%
    10:00 -12°C° 0 mm 5 mps 607 mmHg 78%
    11:00 -10°C° 0 mm 4 mps 608 mmHg 73%
    12:00 -9°C° 0 mm 4 mps 608 mmHg 69%
    13:00 -9°C° 0 mm 4 mps 608 mmHg 69%
    14:00 -10°C° 0 mm 4 mps 608 mmHg 70%
    15:00 -10°C° 0 mm 4 mps 608 mmHg 70%
    16:00 -12°C° 0 mm 4 mps 607 mmHg 74%
    17:00 -14°C° 0 mm 3 mps 606 mmHg 77%
    18:00 -16°C° 0 mm 3 mps 606 mmHg 80%
    19:00 -16°C° 0 mm 3 mps 606 mmHg 80%
    20:00 -16°C° 0 mm 3 mps 607 mmHg 79%
    21:00 -17°C° 0 mm 3 mps 607 mmHg 79%
    22:00 -17°C° 0 mm 3 mps 607 mmHg 82%
    23:00 -17°C° 0 mm 3 mps 607 mmHg 84%
    Show more